This demonstration page uses our WeatherBlox Daily Observations layout. Learn more.

Hourly Observations for December 24, 2016

Temp ( °F °C ) Dew Point ( °F °C ) Humidity (%) Winds ( mph kmh ) Pressure ( in mb ) Visibility ( mi km ) Precip ( " mm )
12:15 am 00:15 Mostly Cloudy 41 5 34 1 76 76 undefined N/A 30.36 1028 10 16.0934 0 0
12:35 am 00:35 Mostly Cloudy 41 5 34 1 76 76 undefined N/A 30.36 1028 10 16.0934 0 0
12:55 am 00:55 Cloudy 41 5 32 0 70 70 undefined N/A 30.36 1028 10 16.0934 0 0
1:15 am 01:15 Cloudy 41 5 32 0 70 70 undefined N/A 30.33 1027 10 16.0934 0 0
1:35 am 01:35 Mostly Cloudy 41 5 32 0 70 70 undefined N/A 30.33 1027 10 16.0934 0 0
1:55 am 01:55 Cloudy 43 6 32 0 66 66 undefined N/A 30.33 1027 10 16.0934 0 0
2:15 am 02:15 Cloudy 43 6 32 0 66 66 undefined N/A 30.36 1028 10 16.0934 0 0
2:35 am 02:35 Cloudy 43 6 32 0 66 66 undefined N/A 30.36 1028 10 16.0934 0 0
2:55 am 02:55 Cloudy 43 6 32 0 66 66 undefined N/A 30.33 1027 10 16.0934 0 0
3:15 am 03:15 Cloudy 43 6 32 0 66 66 undefined N/A 30.33 1027 10 16.0934 0 0
3:35 am 03:35 Cloudy with Light Rain 43 6 34 1 71 71 undefined N/A 30.3 1026 10 16.0934 0 0
3:55 am 03:55 Cloudy with Rain 41 5 34 1 76 76 undefined N/A 30.3 1026 7 11.26538 0.01 0.254
4:15 am 04:15 Cloudy with Rain 41 5 36 2 81 81 undefined N/A 30.3 1026 3 4.82802 0.03 0.762
4:35 am 04:35 Cloudy with Rain 39 4 37 3 93 93 undefined N/A 30.3 1026 3 4.82802 0.09 2.286
4:55 am 04:55 Cloudy with Light Rain 39 4 37 3 93 93 undefined N/A 30.3 1026 3 4.82802 0.16 4.064
5:15 am 05:15 Cloudy with Light Rain 39 4 37 3 93 93 undefined N/A 30.3 1026 3 4.82802 0.05 1.27
5:35 am 05:35 Cloudy with Rain 37 3 37 3 100 100 undefined N/A 30.27 1025 3 4.82802 0.11 2.794
5:55 am 05:55 Cloudy with Rain 37 3 37 3 100 100 undefined N/A 30.27 1025 4 6.43736 0.13 3.302
6:15 am 06:15 Cloudy with Rain 37 3 37 3 100 100 undefined N/A 30.27 1025 4 6.43736 0.03 0.762
6:35 am 06:35 Cloudy with Light Rain 37 3 37 3 100 100 undefined N/A 30.27 1025 4 6.43736 0.06 1.524
6:55 am 06:55 Cloudy with Light Rain 37 3 37 3 100 100 undefined N/A 30.24 1024 4 6.43736 0.08 2.032
7:15 am 07:15 Cloudy with Light Rain 39 4 39 4 100 100 undefined N/A 30.24 1024 3 4.82802 0.02 0.508
7:35 am 07:35 Cloudy with Light Rain 39 4 39 4 100 100 undefined N/A 30.24 1024 5 8.0467 0.03 0.762
7:55 am 07:55 Cloudy with Light Rain 39 4 39 4 100 100 undefined N/A 30.24 1024 4 6.43736 0.06 1.524
8:15 am 08:15 Cloudy with Rain 39 4 39 4 100 100 undefined N/A 30.21 1023 5 8.0467 0.01 0.254
8:35 am 08:35 Cloudy with Light Rain 39 4 39 4 100 100 undefined N/A 30.21 1023 3 4.82802 0.02 0.508
8:55 am 08:55 Cloudy with Light Rain 39 4 39 4 100 100 undefined N/A 30.21 1023 5 8.0467 0.03 0.762
9:15 am 09:15 Cloudy with Light Rain 41 5 41 5 100 100 undefined N/A 30.21 1023 4 6.43736 0.01 0.254
9:35 am 09:35 Cloudy with Mist and Fog 41 5 41 5 100 100 undefined N/A 30.21 1023 5 8.0467 0.01 0.254
9:55 am 09:55 Cloudy with Mist and Fog 41 5 41 5 100 100 undefined N/A 30.21 1023 5 8.0467 0.01 0.254
10:15 am 10:15 Cloudy with Light Rain 41 5 41 5 100 100 undefined N/A 30.21 1023 5 8.0467 0 0
10:35 am 10:35 Cloudy with Mist and Fog 41 5 41 5 100 100 undefined N/A 30.18 1022 5 8.0467 0 0
10:55 am 10:55 Cloudy with Mist and Fog 41 5 41 5 100 100 undefined N/A 30.21 1023 5 8.0467 0 0
11:15 am 11:15 Cloudy with Mist and Fog 43 6 43 6 100 100 undefined N/A 30.18 1022 5 8.0467 0 0
11:35 am 11:35 Cloudy with Mist and Fog 43 6 43 6 100 100 undefined N/A 30.18 1022 5 8.0467 0 0
11:55 am 11:55 Cloudy with Mist and Fog 43 6 43 6 100 100 undefined N/A 30.18 1022 5 8.0467 0 0
12:15 pm 12:15 Cloudy with Mist and Fog 43 6 43 6 100 100 undefined N/A 30.15 1021 5 8.0467 0 0
12:35 pm 12:35 Cloudy 45 7 45 7 100 100 undefined N/A 30.15 1021 7 11.26538 0 0
12:55 pm 12:55 Cloudy 45 7 45 7 100 100 undefined N/A 30.15 1021 7 11.26538 0 0
1:15 pm 13:15 Cloudy 45 7 45 7 100 100 undefined N/A 30.18 1022 7 11.26538 0 0
1:35 pm 13:35 Cloudy 46 8 46 8 100 100 undefined N/A 30.15 1021 10 16.0934 0 0
1:55 pm 13:55 Cloudy 46 8 46 8 100 100 undefined N/A 30.18 1022 10 16.0934 0 0
2:15 pm 14:15 Cloudy 46 8 46 8 100 100 undefined N/A 30.18 1022 10 16.0934 0 0
2:35 pm 14:35 Cloudy 46 8 46 8 100 100 undefined N/A 30.18 1022 10 16.0934 0 0
2:55 pm 14:55 Cloudy 46 8 46 8 100 100 undefined N/A 30.18 1022 10 16.0934 0 0
3:15 pm 15:15 Cloudy 46 8 46 8 100 100 undefined N/A 30.18 1022 10 16.0934 0 0
3:35 pm 15:35 Cloudy 46 8 46 8 100 100 undefined N/A 30.21 1023 10 16.0934 0 0
3:55 pm 15:55 Partly Cloudy 46 8 46 8 100 100 undefined N/A 30.21 1023 10 16.0934 0 0
4:15 pm 16:15 Partly Cloudy 46 8 46 8 100 100 undefined N/A 30.24 1024 10 16.0934 0 0
4:35 pm 16:35 Mostly Cloudy 46 8 46 8 100 100 undefined N/A 30.24 1024 10 16.0934 0 0
4:55 pm 16:55 Cloudy 46 8 46 8 100 100 undefined N/A 30.24 1024 10 16.0934 0 0
5:15 pm 17:15 Cloudy 46 8 46 8 100 100 undefined N/A 30.24 1024 10 16.0934 0 0
5:35 pm 17:35 Cloudy 46 8 46 8 100 100 undefined N/A 30.27 1025 10 16.0934 0 0
5:55 pm 17:55 Cloudy 45 7 45 7 100 100 undefined N/A 30.27 1025 7 11.26538 0 0
6:15 pm 18:15 Cloudy 45 7 45 7 100 100 undefined N/A 30.27 1025 7 11.26538 0 0
6:35 pm 18:35 Partly Cloudy with Mist and Fog 43 6 43 6 100 100 undefined N/A 30.27 1025 3 4.82802 0 0
6:55 pm 18:55 Cloudy with Fog 43 6 43 6 100 100 undefined N/A 30.27 1025 0.25 0.402335 0 0
7:15 pm 19:15 Mostly Cloudy with Fog 41 5 41 5 100 100 undefined N/A 30.3 1026 0.5 0.80467 0 0
7:35 pm 19:35 Cloudy with Fog 41 5 41 5 100 100 undefined N/A 30.3 1026 0.25 0.402335 0 0
7:55 pm 19:55 Cloudy with Mist and Fog 41 5 41 5 100 100 undefined N/A 30.3 1026 0.75 1.207005 0 0
8:15 pm 20:15 Cloudy with Fog 37 3 37 3 100 100 undefined N/A 30.3 1026 0.25 0.402335 0 0
8:35 pm 20:35 Cloudy with Mist and Fog 39 4 39 4 100 100 undefined N/A 30.3 1026 0.75 1.207005 0 0
8:55 pm 20:55 Partly Cloudy 43 6 43 6 100 100 undefined N/A 30.3 1026 10 16.0934 0 0
9:15 pm 21:15 Partly Cloudy 43 6 43 6 100 100 undefined N/A 30.33 1027 10 16.0934 0 0
9:35 pm 21:35 Mostly Cloudy 45 7 45 7 100 100 undefined N/A 30.33 1027 10 16.0934 0 0
9:55 pm 21:55 Cloudy 45 7 43 6 93 93 undefined N/A 30.33 1027 10 16.0934 0 0
10:15 pm 22:15 Cloudy with Mist and Fog 41 5 41 5 100 100 undefined N/A 30.36 1028 5 8.0467 0 0
10:35 pm 22:35 Cloudy 41 5 41 5 100 100 undefined N/A 30.36 1028 10 16.0934 0 0
10:55 pm 22:55 Cloudy 43 6 43 6 100 100 undefined N/A 30.36 1028 10 16.0934 0 0
11:15 pm 23:15 Cloudy 43 6 43 6 100 100 undefined N/A 30.36 1028 10 16.0934 0 0
11:35 pm 23:35 Cloudy 45 7 45 7 100 100 undefined N/A 30.36 1028 10 16.0934 0 0
11:55 pm 23:55 Cloudy 46 8 45 7 93 93 undefined N/A 30.39 1029 10 16.0934 0 0

Powered by AerisWeather